TimeEST,TemperatureF,Dew PointF,Humidity,Sea Level PressureIn,VisibilityMPH,Wind Direction,Wind SpeedMPH,Gust SpeedMPH,PrecipitationIn,Events,Conditions,WindDirDegrees,DateUTC
12:15 AM,39.2,39.2,100,30.19,7.0,Calm,Calm,-,N/A,,Overcast,0,2012-12-07 05:15:00
12:35 AM,39.2,39.2,100,30.19,7.0,Calm,Calm,-,0.01,,Overcast,0,2012-12-07 05:35:00
12:55 AM,39.2,39.2,100,30.18,5.0,Calm,Calm,-,N/A,,Overcast,0,2012-12-07 05:55:00
1:15 AM,39.2,39.2,100,30.18,5.0,Calm,Calm,-,N/A,,Drizzle,0,2012-12-07 06:15:00
1:35 AM,39.2,39.2,100,30.17,4.0,Calm,Calm,-,N/A,,Light Drizzle,0,2012-12-07 06:35:00
1:55 AM,39.2,39.2,100,30.17,3.0,Calm,Calm,-,N/A,,Mostly Cloudy,0,2012-12-07 06:55:00
2:15 AM,39.2,39.2,100,30.17,2.0,Calm,Calm,-,N/A,,Mostly Cloudy,0,2012-12-07 07:15:00
2:35 AM,39.2,39.2,100,30.17,1.8,Calm,Calm,-,N/A,,Overcast,0,2012-12-07 07:35:00
2:55 AM,37.4,-9999,N/A,30.16,-9999.0,Calm,Calm,-,N/A,,Unknown,0,2012-12-07 07:55:00
3:15 AM,37.4,37.4,100,30.16,2.5,Calm,Calm,-,N/A,,Overcast,0,2012-12-07 08:15:00
3:35 AM,39.2,39.2,100,30.15,2.5,Calm,Calm,-,N/A,,Overcast,0,2012-12-07 08:35:00
3:55 AM,37.4,37.4,100,30.14,4.0,Calm,Calm,-,N/A,,Mostly Cloudy,0,2012-12-07 08:55:00
4:15 AM,37.4,37.4,100,30.14,3.0,Calm,Calm,-,N/A,,Scattered Clouds,0,2012-12-07 09:15:00
4:35 AM,37.4,37.4,100,30.14,3.0,Calm,Calm,-,N/A,,Mostly Cloudy,0,2012-12-07 09:35:00
4:55 AM,37.4,37.4,100,30.14,2.5,Calm,Calm,-,N/A,,Scattered Clouds,0,2012-12-07 09:55:00
5:15 AM,37.4,37.4,100,30.14,2.0,Calm,Calm,-,N/A,,Mist,0,2012-12-07 10:15:00
5:35 AM,37.4,37.4,100,30.14,-9999.0,Calm,Calm,-,N/A,,Unknown,0,2012-12-07 10:35:00
5:55 AM,35.6,35.6,100,30.14,-9999.0,Calm,Calm,-,N/A,,Unknown,0,2012-12-07 10:55:00
6:15 AM,35.6,35.6,100,30.14,1.8,Calm,Calm,-,N/A,,Mist,0,2012-12-07 11:15:00
6:35 AM,-9999,-9999,N/A,30.15,-9999.0,Calm,Calm,-,N/A,,Unknown,0,2012-12-07 11:35:00
6:55 AM,-9999,-9999,N/A,30.15,-9999.0,Calm,Calm,-,N/A,,Unknown,0,2012-12-07 11:55:00
7:15 AM,35.6,35.6,100,30.15,-9999.0,Calm,Calm,-,N/A,,Mostly Cloudy,0,2012-12-07 12:15:00
7:35 AM,35.6,35.6,100,30.15,0.8,Calm,Calm,-,N/A,,Mist,0,2012-12-07 12:35:00
7:55 AM,-9999,-9999,N/A,30.15,-9999.0,Calm,Calm,-,N/A,,Unknown,0,2012-12-07 12:55:00
8:15 AM,-9999,-9999,N/A,30.15,-9999.0,Calm,Calm,-,N/A,,Unknown,0,2012-12-07 13:15:00
8:35 AM,37.4,37.4,100,30.15,2.5,Calm,Calm,-,N/A,,Mostly Cloudy,0,2012-12-07 13:35:00
8:55 AM,39.2,39.2,100,30.15,3.0,Calm,Calm,-,N/A,,Overcast,0,2012-12-07 13:55:00
9:15 AM,39.2,39.2,100,30.14,5.0,Calm,Calm,-,N/A,,Scattered Clouds,0,2012-12-07 14:15:00
9:35 AM,39.2,39.2,100,30.14,5.0,Calm,Calm,-,N/A,,Clear,0,2012-12-07 14:35:00
9:55 AM,42.8,42.8,100,30.15,7.0,Calm,Calm,-,N/A,,Clear,0,2012-12-07 14:55:00
10:15 AM,44.6,44.6,100,30.14,7.0,Calm,Calm,-,N/A,,Clear,0,2012-12-07 15:15:00
10:35 AM,44.6,44.6,100,30.13,7.0,Calm,Calm,-,N/A,,Clear,0,2012-12-07 15:35:00
10:55 AM,46.4,44.6,93,30.13,7.0,Calm,Calm,-,N/A,,Mostly Cloudy,0,2012-12-07 15:55:00
11:15 AM,46.4,44.6,93,30.12,7.0,Calm,Calm,-,N/A,,Mostly Cloudy,0,2012-12-07 16:15:00
11:35 AM,48.2,44.6,87,30.11,10.0,Calm,Calm,-,N/A,,Overcast,0,2012-12-07 16:35:00
11:55 AM,50.0,46.4,87,30.10,10.0,Calm,Calm,-,N/A,,Overcast,0,2012-12-07 16:55:00
12:15 PM,51.8,46.4,82,30.09,10.0,Calm,Calm,-,N/A,,Overcast,0,2012-12-07 17:15:00
12:35 PM,51.8,46.4,82,30.08,10.0,Calm,Calm,-,N/A,,Mostly Cloudy,0,2012-12-07 17:35:00
12:55 PM,51.8,48.2,88,30.07,7.0,Calm,Calm,-,N/A,,Mostly Cloudy,0,2012-12-07 17:55:00
1:15 PM,51.8,48.2,88,30.06,10.0,Calm,Calm,-,N/A,,Mostly Cloudy,0,2012-12-07 18:15:00
1:35 PM,53.6,48.2,82,30.05,10.0,Calm,Calm,-,N/A,,Scattered Clouds,0,2012-12-07 18:35:00
2:15 PM,55.4,50.0,82,30.03,10.0,Calm,Calm,-,N/A,,Clear,0,2012-12-07 19:15:00
2:35 PM,55.4,50.0,82,30.02,10.0,Calm,Calm,-,N/A,,Clear,0,2012-12-07 19:35:00
2:55 PM,55.4,50.0,82,30.02,10.0,Calm,Calm,-,N/A,,Clear,0,2012-12-07 19:55:00
3:15 PM,55.4,50.0,82,30.01,10.0,Calm,Calm,-,N/A,,Clear,0,2012-12-07 20:15:00
3:35 PM,55.4,51.8,88,30.01,10.0,Calm,Calm,-,N/A,,Clear,0,2012-12-07 20:35:00
3:55 PM,55.4,51.8,88,30.01,10.0,East,3.5,-,N/A,,Clear,80,2012-12-07 20:55:00
4:15 PM,55.4,50.0,82,30.01,10.0,ENE,3.5,-,N/A,,Clear,70,2012-12-07 21:15:00
4:35 PM,53.6,50.0,88,30.01,10.0,East,3.5,-,N/A,,Scattered Clouds,90,2012-12-07 21:35:00
4:55 PM,53.6,50.0,88,30.01,10.0,Calm,Calm,-,N/A,,Clear,0,2012-12-07 21:55:00
5:15 PM,51.8,48.2,88,30.01,7.0,Calm,Calm,-,N/A,,Scattered Clouds,0,2012-12-07 22:15:00
5:35 PM,51.8,48.2,88,30.01,10.0,Calm,Calm,-,N/A,,Clear,0,2012-12-07 22:35:00
5:55 PM,48.2,46.4,93,30.01,7.0,Calm,Calm,-,N/A,,Clear,0,2012-12-07 22:55:00
6:15 PM,48.2,48.2,100,30.01,7.0,Calm,Calm,-,N/A,,Clear,0,2012-12-07 23:15:00
6:35 PM,46.4,46.4,100,30.01,7.0,Calm,Calm,-,N/A,,Clear,0,2012-12-07 23:35:00
6:55 PM,48.2,48.2,100,30.01,7.0,Calm,Calm,-,N/A,,Clear,0,2012-12-07 23:55:00
7:15 PM,48.2,48.2,100,30.02,7.0,Calm,Calm,-,N/A,,Clear,0,2012-12-08 00:15:00
7:35 PM,48.2,48.2,100,30.02,10.0,Calm,Calm,-,N/A,,Clear,0,2012-12-08 00:35:00
8:15 PM,46.4,46.4,100,30.02,10.0,Calm,Calm,-,N/A,,Clear,0,2012-12-08 01:15:00
8:35 PM,46.4,44.6,93,30.02,10.0,Calm,Calm,-,N/A,,Clear,0,2012-12-08 01:35:00
8:55 PM,46.4,44.6,93,30.02,10.0,Calm,Calm,-,N/A,,Clear,0,2012-12-08 01:55:00
9:15 PM,44.6,42.8,93,30.02,10.0,Calm,Calm,-,N/A,,Clear,0,2012-12-08 02:15:00
9:35 PM,42.8,42.8,100,30.02,7.0,Calm,Calm,-,N/A,,Clear,0,2012-12-08 02:35:00
9:55 PM,42.8,42.8,100,30.02,5.0,Calm,Calm,-,N/A,,Clear,0,2012-12-08 02:55:00
10:15 PM,42.8,42.8,100,30.01,2.0,Calm,Calm,-,N/A,,Clear,0,2012-12-08 03:15:00
10:55 PM,-9999,-9999,N/A,-9999,-9999.0,North,-9999.0,-,N/A,,Unknown,0,2012-12-08 03:55:00
11:15 PM,-9999,-9999,N/A,-9999,-9999.0,North,-9999.0,-,N/A,,Unknown,0,2012-12-08 04:15:00
11:35 PM,39.2,39.2,100,30.01,-9999.0,Calm,Calm,-,N/A,,Unknown,0,2012-12-08 04:35:00
11:55 PM,39.2,39.2,100,30.01,-9999.0,Calm,Calm,-,N/A,,Unknown,0,2012-12-08 04:55:00